Starlink 11728

operational
NORAD ID: 64323 Int'l Des: 2025-124 Owner: SPXS Country: US Constellation: starlink
LEOCIRCULAR

Über Starlink 11728

Beschreibung wird geladen...

Live-Position

3D-Globus wird geladen...

Nächste Überflüge

Höhenverlauf

Altitude vs Time

uPlot chart will show altitude changes over time

Zweizeiliger Elementsatz

1 64323U 25124G 25353.79763654 .00239041 00000-0 18083-2 0 9998
2 64323 42.9994 150.4021 0002102 288.6252 71.4387 15.70905311 30272
Epoch: 19. Dez. 2025 • Age: 12 hours

Aktueller Status

Höhe 355.0 km
Geschwindigkeit 7.70 km/s
Subsatellitenpunkt -0.96°S, 52.98°W
Startdatum 10. Juni 2025
Alter 0.5 years
Typ internet

Technische Details

Klassifizierung Payload
Masse 960.00 kg
Trockenmasse 910.00 kg
Gesamtmasse 960.00 kg
Länge 0.30 m
Durchmesser 4.10 m
Spannweite 29.00 m
Form Box + pan
Hersteller SPXS
Bus-Typ Starlink V2MD
Phasenstatus In Orbit
Besitzer/Staat SPXS/US

Große Konstellationen

Loading constellations...